This is the latest recevied weather packets stored in our database for station/object OE6ACM-10. If no packets are shown the sender has not sent any weather packets the latest 10 day(s).
| Time | Temp. | Humidity | Pressure | Rain* | Wind** | Luminosity | Snow |
|---|---|---|---|---|---|---|---|
| 1777987656 | 35° C | 56% | 918.8 hPa | - | - | - | - |
| 1777987356 | 35.56° C | 59% | 918.8 hPa | - | - | - | - |
| 1777987056 | 34.44° C | 59% | 918.9 hPa | - | - | - | - |
| 1777986756 | 34.44° C | 61% | 919.2 hPa | - | - | - | - |
| 1777986456 | 34.44° C | 60% | 919 hPa | - | - | - | - |
| 1777986156 | 35° C | 58% | 919 hPa | - | - | - | - |
| 1777985856 | 33.89° C | 59% | 919.1 hPa | - | - | - | - |
| 1777985556 | 34.44° C | 58% | 919 hPa | - | - | - | - |
| 1777985256 | 35.56° C | 55% | 919.1 hPa | - | - | - | - |
| 1777984956 | 35.56° C | 54% | 919.2 hPa | - | - | - | - |
| 1777984656 | 35.56° C | 57% | 919.3 hPa | - | - | - | - |
| 1777984356 | 35.56° C | 57% | 919.3 hPa | - | - | - | - |
| 1777984056 | 34.44° C | 62% | 919.3 hPa | - | - | - | - |
| 1777983756 | 34.44° C | 57% | 919.4 hPa | - | - | - | - |
| 1777983456 | 36.11° C | 56% | 919.3 hPa | - | - | - | - |
| 1777983156 | 35.56° C | 58% | 919.3 hPa | - | - | - | - |
| 1777982856 | 35.56° C | 62% | 919.4 hPa | - | - | - | - |
| 1777982556 | 34.44° C | 58% | 919.3 hPa | - | - | - | - |
| 1777982256 | 35.56° C | 56% | 919.3 hPa | - | - | - | - |
| 1777981956 | 35° C | 61% | 919.4 hPa | - | - | - | - |
| 1777981656 | 34.44° C | 61% | 919.2 hPa | - | - | - | - |
| 1777981356 | 34.44° C | 62% | 919.2 hPa | - | - | - | - |
| 1777981056 | 33.89° C | 63% | 919.2 hPa | - | - | - | - |
| 1777980756 | 33.33° C | 64% | 919.2 hPa | - | - | - | - |
| 1777980456 | 32.78° C | 62% | 919.2 hPa | - | - | - | - |
* Rain since midnight (hover to see other rain measurements)
** Current wind speed in m/s (hover to see current wind gust speed)